Regional Weather Roundup
Issued by NWS

Home | Current Version | Previous Version | Graphics & Text | Print | Product List | Glossary On
Versions: 1 2 3 4 5 6 7 8 9 10 11 12 13 14 15 16 17 18 19 20 21 22 23 24 25 26 27 28 29 30 31 32 33 34 35 36 37 38 39 40 41 42 43 44 45 46 47 48 49 50
000
ASUS45 KCYS 121610
RWRWY

WYOMING REGIONAL WEATHER ROUNDUP
NATIONAL WEATHER SERVICE CHEYENNE WY
1000 AM MDT SAT JUL 12 2014

NOTE:  "FAIR" INDICATES FEW OR NO CLOUDS BELOW 12,000 FEET
WITH NO SIGNIFICANT WEATHER AND/OR OBSTRUCTIONS TO VISIBILITY.

WYZ001-121700-
YELLOWSTONE NATIONAL PARK

CITY           SKY/WX    TMP DP  RH WIND       PRES   REMARKS
LK YELLOWSTONE   N/A     59  46  62 E3        30.49S
W YELLOWSTONE  NOT AVBL

$$
WYZ002>013-054>058-071-098>099-121700-
NORTHERN WYOMING

CITY           SKY/WX    TMP DP  RH WIND       PRES   REMARKS
JACKSON        SUNNY     61  54  77 CALM      30.40
CODY           MOSUNNY  N/A N/A N/A SW9       30.27S
GREYBULL       MOSUNNY   76  54  46 VRB7      30.21S
WORLAND        SUNNY     73  55  53 W3        30.23F
SHERIDAN       MOSUNNY   72  58  61 W8        30.23S
BUFFALO        MOSUNNY   71  53  52 N14       30.27S
GILLETTE       MOSUNNY   75  56  51 NW14      30.22S
HULETT         FAIR      72  59  64 MISG      30.23
NEWCASTLE      FAIR      72  54  53 MISG      30.22

$$
WYZ014>020-022>026-101>103-121700-
CENTRAL WYOMING

CITY           SKY/WX    TMP DP  RH WIND       PRES   REMARKS
BIG PINEY      SUNNY     69  48  47 SW7       30.40F
PINEDALE       SUNNY     66  48  52 NW7       30.41F
DUBOIS         FAIR      70  43  37 NW12      30.38F
LANDER         SUNNY     69  55  60 CALM      30.32R
RIVERTON       SUNNY     70  56  61 CALM      30.32R
CASPER         SUNNY     74  53  48 N12       30.28R
DOUGLAS        MOSUNNY   69  55  60 CALM      30.28R

$$
WYZ021-027>030-104>119-121700-
SOUTHERN WYOMING

CITY           SKY/WX    TMP DP  RH WIND       PRES   REMARKS
EVANSTON       SUNNY     65  53  65 VRB3      30.41R
KEMMERER       SUNNY     66  50  55 CALM      30.42S
ROCK SPRINGS   MOSUNNY   67  52  58 VRB3      30.38R
DIXON          PTSUNNY   68  56  66 CALM      30.38S
RAWLINS        MOSUNNY   69  53  56 VRB5      30.37R
SARATOGA       PTSUNNY   66  54  63 CALM      30.40R
LARAMIE        PTSUNNY   63  55  75 VRB6      30.39R
CHEYENNE       CLOUDY    68  58  70 N10       30.32R
TORRINGTON     PTSUNNY   72  61  68 CALM      30.22R

$$


USA.gov is the U.S. government's official web portal to all federal, state and local government web resources and services.